Radiation Dose at Monitoring Post of Fukushima Daini Nuclear Power Station
Date,Time,MP-1(microSv/h),MP-2(microSv/h),MP-3(microSv/h),MP-4(microSv/h),MP-5(microSv/h),MP-6(microSv/h),MP-7(microSv/h),Wind Direction,Wind Velocity(m/s),Rain
2014/10/26,00:00,0.616,0.428,0.654,0.592,0.591,0.270,0.239,southwest,3.3,No
2014/10/26,00:10,0.617,0.428,0.655,0.593,0.590,0.271,0.239,southwest,2.8,No
2014/10/26,00:20,0.616,0.427,0.652,0.590,0.592,0.270,0.238,southwest,2.9,No
2014/10/26,00:30,0.615,0.427,0.654,0.594,0.591,0.271,0.239,west-southwest,3.5,No
2014/10/26,00:40,0.616,0.428,0.653,0.593,0.590,0.271,0.237,southwest,4.3,No
2014/10/26,00:50,0.616,0.428,0.653,0.593,0.592,0.271,0.237,southwest,5.4,No
2014/10/26,01:00,0.615,0.428,0.651,0.594,0.591,0.272,0.239,west-southwest,4.9,No
2014/10/26,01:10,0.616,0.429,0.652,0.593,0.589,0.272,0.238,west-southwest,5.8,No
2014/10/26,01:20,0.618,0.429,0.651,0.591,0.591,0.271,0.238,west-southwest,5.1,No
2014/10/26,01:30,0.617,0.428,0.653,0.592,0.590,0.271,0.237,west-southwest,4.4,No
2014/10/26,01:40,0.616,0.428,0.653,0.592,0.591,0.270,0.238,southwest,6.3,No
2014/10/26,01:50,0.617,0.427,0.654,0.592,0.591,0.271,0.238,southwest,7.8,No
2014/10/26,02:00,0.614,0.428,0.652,0.592,0.591,0.270,0.239,west-southwest,6.2,No
2014/10/26,02:10,0.617,0.427,0.653,0.593,0.591,0.270,0.237,west-southwest,5.8,No
2014/10/26,02:20,0.617,0.428,0.654,0.592,0.590,0.270,0.238,west-southwest,5.0,No
2014/10/26,02:30,0.616,0.427,0.653,0.593,0.590,0.271,0.237,west-southwest,3.9,No
2014/10/26,02:40,0.615,0.429,0.652,0.591,0.591,0.270,0.238,southwest,2.9,No
2014/10/26,02:50,0.615,0.427,0.652,0.593,0.590,0.271,0.238,south-southwest,1.1,No
2014/10/26,03:00,0.617,0.427,0.653,0.594,0.590,0.272,0.238,south,1.2,No
2014/10/26,03:10,0.616,0.428,0.653,0.593,0.592,0.272,0.237,southwest,1.3,No
2014/10/26,03:20,0.617,0.427,0.654,0.592,0.592,0.271,0.238,south-southwest,1.7,No
2014/10/26,03:30,0.616,0.429,0.652,0.591,0.590,0.270,0.238,south-southwest,3.0,No
2014/10/26,03:40,0.617,0.427,0.654,0.592,0.589,0.271,0.238,south-southwest,3.4,No
2014/10/26,03:50,0.617,0.428,0.654,0.594,0.592,0.271,0.238,south-southwest,2.9,No
2014/10/26,04:00,0.617,0.429,0.653,0.593,0.591,0.271,0.237,south-southwest,2.3,No
2014/10/26,04:10,0.617,0.428,0.651,0.592,0.591,0.271,0.238,southeast,0.6,No
2014/10/26,04:20,0.617,0.428,0.653,0.592,0.592,0.271,0.237,south,0.6,No
2014/10/26,04:30,0.619,0.428,0.655,0.593,0.592,0.272,0.237,southwest,1.4,No
2014/10/26,04:40,0.617,0.428,0.653,0.592,0.589,0.271,0.239,southwest,0.5,No
2014/10/26,04:50,0.616,0.427,0.652,0.592,0.590,0.273,0.238,-,CALM,No
2014/10/26,05:00,0.617,0.427,0.654,0.591,0.590,0.271,0.238,-,CALM,No
2014/10/26,05:10,0.617,0.428,0.655,0.594,0.591,0.269,0.237,-,CALM,No
2014/10/26,05:20,0.616,0.428,0.655,0.593,0.590,0.270,0.238,east-northeast,1.0,No
2014/10/26,05:30,0.617,0.429,0.653,0.592,0.590,0.271,0.237,east-southeast,0.8,No
2014/10/26,05:40,0.616,0.428,0.653,0.594,0.590,0.272,0.238,east-southeast,0.9,No
2014/10/26,05:50,0.616,0.429,0.654,0.594,0.591,0.272,0.238,east-southeast,0.9,No
2014/10/26,06:00,0.617,0.429,0.653,0.594,0.591,0.271,0.238,east-northeast,1.5,No
2014/10/26,06:10,0.617,0.430,0.653,0.593,0.590,0.271,0.238,-,CALM,No
2014/10/26,06:20,0.616,0.428,0.653,0.593,0.591,0.271,0.239,east-northeast,0.7,No
2014/10/26,06:30,0.616,0.429,0.654,0.593,0.591,0.270,0.237,east,0.5,No
2014/10/26,06:40,0.618,0.429,0.654,0.594,0.589,0.272,0.238,east-northeast,1.3,No
2014/10/26,06:50,0.614,0.428,0.654,0.593,0.590,0.271,0.238,east-northeast,0.6,No
2014/10/26,07:00,0.617,0.429,0.653,0.594,0.592,0.271,0.237,east-northeast,1.3,No
2014/10/26,07:10,0.618,0.428,0.653,0.595,0.591,0.272,0.239,east-northeast,1.2,No
2014/10/26,07:20,0.618,0.429,0.655,0.593,0.591,0.270,0.237,east-northeast,0.8,No
2014/10/26,07:30,0.618,0.428,0.655,0.594,0.590,0.271,0.238,east,0.7,No
2014/10/26,07:40,0.617,0.428,0.653,0.594,0.592,0.271,0.238,east-northeast,1.2,No
2014/10/26,07:50,0.619,0.428,0.655,0.595,0.592,0.272,0.237,southeast,1.2,No
2014/10/26,08:00,0.618,0.428,0.654,0.594,0.591,0.271,0.238,east,0.6,No
2014/10/26,08:10,0.619,0.429,0.654,0.596,0.592,0.272,0.237,east-northeast,1.2,No
2014/10/26,08:20,0.618,0.429,0.654,0.596,0.592,0.270,0.238,east-northeast,1.6,No
2014/10/26,08:30,0.617,0.429,0.655,0.595,0.591,0.271,0.238,east-northeast,2.2,No
2014/10/26,08:40,0.617,0.430,0.653,0.597,0.592,0.272,0.239,east-northeast,2.8,No
2014/10/26,08:50,0.619,0.431,0.653,0.597,0.593,0.272,0.237,northeast,3.3,No
2014/10/26,09:00,0.618,0.431,0.654,0.594,0.592,0.270,0.239,northeast,1.9,No
2014/10/26,09:10,0.617,0.429,0.655,0.598,0.591,0.271,0.238,northeast,1.9,No
2014/10/26,09:20,0.618,0.431,0.656,0.599,0.593,0.270,0.237,north-northeast,1.0,No
2014/10/26,09:30,0.619,0.430,0.654,0.602,0.593,0.269,0.239,northeast,0.5,No
2014/10/26,09:40,0.620,0.432,0.654,0.603,0.594,0.271,0.239,east-northeast,1.4,No
2014/10/26,09:50,0.621,0.431,0.656,0.605,0.593,0.270,0.238,northeast,1.1,No
2014/10/26,10:00,0.622,0.434,0.654,0.605,0.593,0.271,0.237,northeast,1.3,No
2014/10/26,10:10,0.622,0.434,0.655,0.606,0.595,0.271,0.239,east-northeast,1.8,No
2014/10/26,10:20,0.623,0.433,0.655,0.607,0.596,0.272,0.240,northeast,1.7,No
2014/10/26,10:30,0.621,0.432,0.655,0.611,0.596,0.271,0.238,east-northeast,1.1,No
2014/10/26,10:40,0.622,0.433,0.655,0.610,0.596,0.271,0.241,east,1.4,No
2014/10/26,10:50,0.623,0.435,0.655,0.610,0.598,0.272,0.240,east,1.2,No
2014/10/26,11:00,0.624,0.436,0.656,0.610,0.598,0.271,0.237,northeast,2.1,No
2014/10/26,11:10,0.627,0.435,0.658,0.611,0.600,0.273,0.239,east-northeast,1.8,No
2014/10/26,11:20,0.627,0.434,0.656,0.612,0.599,0.271,0.239,east,1.3,No
2014/10/26,11:30,0.628,0.436,0.658,0.614,0.601,0.271,0.238,east-northeast,1.0,No
2014/10/26,11:40,0.627,0.436,0.657,0.613,0.597,0.272,0.238,east,0.7,No
2014/10/26,11:50,0.627,0.436,0.658,0.612,0.600,0.272,0.240,east-northeast,1.5,No
2014/10/26,12:00,0.626,0.437,0.660,0.612,0.599,0.272,0.238,southeast,1.0,No
2014/10/26,12:10,0.630,0.437,0.657,0.611,0.598,0.272,0.238,east,1.4,No
2014/10/26,12:20,0.630,0.436,0.661,0.610,0.598,0.273,0.239,east-southeast,1.4,No
2014/10/26,12:30,0.627,0.433,0.660,0.611,0.596,0.272,0.240,southeast,1.5,No
2014/10/26,12:40,0.628,0.436,0.661,0.611,0.598,0.272,0.238,south-southeast,2.7,No
2014/10/26,12:50,0.628,0.434,0.661,0.611,0.599,0.271,0.237,south-southeast,3.1,No
2014/10/26,13:00,0.625,0.435,0.664,0.612,0.597,0.272,0.238,south-southeast,4.4,No
2014/10/26,13:10,0.627,0.434,0.663,0.611,0.598,0.274,0.239,south,8.9,No
2014/10/26,13:20,0.626,0.434,0.663,0.612,0.597,0.271,0.238,south,11.0,No
2014/10/26,13:30,0.626,0.434,0.662,0.612,0.595,0.271,0.238,south,9.3,No
2014/10/26,13:40,0.626,0.433,0.662,0.607,0.597,0.272,0.238,south,10.8,No
2014/10/26,13:50,0.627,0.433,0.661,0.609,0.594,0.272,0.240,south,9.6,No
2014/10/26,14:00,0.626,0.432,0.662,0.609,0.596,0.270,0.237,south,11.0,No
2014/10/26,14:10,0.628,0.432,0.658,0.609,0.595,0.271,0.239,south,8.9,No
2014/10/26,14:20,0.625,0.434,0.657,0.608,0.594,0.272,0.239,south,8.7,No
2014/10/26,14:30,0.625,0.433,0.660,0.608,0.594,0.273,0.238,south,7.2,No
2014/10/26,14:40,0.623,0.433,0.659,0.608,0.593,0.272,0.239,south,6.4,No
2014/10/26,14:50,0.626,0.434,0.658,0.609,0.594,0.272,0.239,south-southwest,6.1,No
2014/10/26,15:00,0.626,0.433,0.658,0.608,0.593,0.272,0.237,south,4.7,No
2014/10/26,15:10,0.624,0.432,0.659,0.610,0.594,0.273,0.239,south,5.0,No
2014/10/26,15:20,0.624,0.433,0.657,0.606,0.593,0.271,0.240,south,5.0,No
2014/10/26,15:30,0.625,0.433,0.659,0.610,0.594,0.270,0.236,south-southwest,5.9,No
2014/10/26,15:40,0.626,0.432,0.658,0.610,0.593,0.272,0.239,south-southwest,8.2,No
2014/10/26,15:50,0.623,0.433,0.659,0.610,0.593,0.272,0.240,south,9.5,No
2014/10/26,16:00,0.625,0.434,0.658,0.610,0.593,0.270,0.239,south,6.7,No
2014/10/26,16:10,0.623,0.433,0.659,0.610,0.594,0.272,0.240,south,8.6,No
2014/10/26,16:20,0.624,0.433,0.658,0.605,0.594,0.272,0.240,south-southwest,8.3,No
2014/10/26,16:30,0.625,0.433,0.660,0.606,0.594,0.272,0.238,south-southwest,8.5,No
2014/10/26,16:40,0.625,0.434,0.657,0.607,0.593,0.271,0.240,south-southwest,7.7,No
2014/10/26,16:50,0.623,0.433,0.657,0.606,0.593,0.273,0.239,south-southwest,7.0,No
2014/10/26,17:00,0.621,0.433,0.658,0.606,0.595,0.271,0.240,south-southwest,7.5,No
2014/10/26,17:10,0.623,0.433,0.659,0.604,0.593,0.272,0.238,south-southwest,8.4,No
2014/10/26,17:20,0.622,0.434,0.658,0.603,0.592,0.272,0.239,south-southwest,8.8,No
2014/10/26,17:30,0.620,0.433,0.656,0.606,0.593,0.270,0.239,south-southwest,9.8,No
2014/10/26,17:40,0.619,0.431,0.657,0.603,0.594,0.271,0.239,south-southwest,9.3,No
2014/10/26,17:50,0.619,0.431,0.657,0.604,0.594,0.271,0.239,south-southwest,8.9,No
2014/10/26,18:00,0.620,0.431,0.658,0.601,0.592,0.273,0.238,south-southwest,8.2,No
2014/10/26,18:10,0.618,0.429,0.656,0.601,0.593,0.270,0.240,south-southwest,9.4,No
2014/10/26,18:20,0.617,0.430,0.656,0.603,0.593,0.273,0.238,south-southwest,10.2,No
2014/10/26,18:30,0.617,0.430,0.654,0.600,0.591,0.274,0.239,south-southwest,9.5,No
2014/10/26,18:40,0.619,0.429,0.656,0.600,0.593,0.271,0.238,south-southwest,9.5,Yes
2014/10/26,18:50,0.617,0.431,0.657,0.601,0.593,0.272,0.240,south-southwest,11.2,Yes
2014/10/26,19:00,0.617,0.430,0.656,0.600,0.594,0.270,0.239,south-southwest,10.4,Yes
2014/10/26,19:10,0.616,0.431,0.655,0.601,0.590,0.271,0.240,south-southwest,7.8,Yes
2014/10/26,19:20,0.617,0.430,0.655,0.598,0.593,0.272,0.240,south-southwest,9.8,No
2014/10/26,19:30,0.617,0.430,0.656,0.596,0.591,0.272,0.239,south-southwest,11.4,No
2014/10/26,19:40,0.617,0.429,0.656,0.598,0.592,0.272,0.239,south-southwest,10.0,No
2014/10/26,19:50,0.616,0.429,0.654,0.598,0.591,0.272,0.238,south-southwest,9.8,No
2014/10/26,20:00,0.616,0.429,0.655,0.599,0.591,0.272,0.240,south-southwest,9.8,No
2014/10/26,20:10,0.616,0.430,0.654,0.599,0.591,0.272,0.238,south-southwest,9.2,No
2014/10/26,20:20,0.616,0.431,0.654,0.599,0.591,0.272,0.240,south-southwest,10.5,No
2014/10/26,20:30,0.616,0.428,0.655,0.594,0.591,0.272,0.240,south-southwest,10.7,No
2014/10/26,20:40,0.616,0.429,0.656,0.597,0.590,0.271,0.240,south-southwest,10.7,No
2014/10/26,20:50,0.616,0.430,0.656,0.594,0.590,0.271,0.240,south-southwest,11.3,No
2014/10/26,21:00,0.614,0.431,0.655,0.596,0.590,0.272,0.240,south-southwest,11.1,No
2014/10/26,21:10,0.616,0.433,0.656,0.596,0.591,0.273,0.240,south-southwest,9.5,No
2014/10/26,21:20,0.618,0.431,0.654,0.597,0.590,0.272,0.239,south-southwest,9.8,No
2014/10/26,21:30,0.616,0.430,0.653,0.597,0.592,0.273,0.239,south-southwest,10.4,No
2014/10/26,21:40,0.618,0.431,0.657,0.598,0.591,0.271,0.239,south-southwest,9.5,No
2014/10/26,21:50,0.618,0.430,0.654,0.598,0.591,0.271,0.240,south-southwest,8.1,No
2014/10/26,22:00,0.617,0.431,0.655,0.596,0.590,0.272,0.238,south-southwest,8.6,No
2014/10/26,22:10,0.619,0.429,0.654,0.597,0.592,0.271,0.240,south-southwest,8.8,No
2014/10/26,22:20,0.617,0.430,0.655,0.596,0.592,0.274,0.239,south-southwest,7.8,No
2014/10/26,22:30,0.617,0.431,0.656,0.594,0.592,0.271,0.240,south-southwest,7.4,No
2014/10/26,22:40,0.616,0.429,0.655,0.596,0.589,0.273,0.240,south-southwest,7.4,No
2014/10/26,22:50,0.616,0.429,0.654,0.595,0.591,0.274,0.238,south-southwest,7.1,No
2014/10/26,23:00,0.618,0.430,0.655,0.594,0.592,0.272,0.240,south-southwest,6.4,No
2014/10/26,23:10,0.616,0.431,0.655,0.595,0.592,0.272,0.239,south-southwest,6.3,No
2014/10/26,23:20,0.615,0.430,0.655,0.595,0.590,0.271,0.241,south-southwest,6.3,No
2014/10/26,23:30,0.616,0.428,0.656,0.596,0.592,0.274,0.239,south-southwest,5.6,Yes
2014/10/26,23:40,0.617,0.430,0.656,0.596,0.593,0.272,0.241,south-southwest,4.5,No
2014/10/26,23:50,0.615,0.430,0.657,0.597,0.591,0.273,0.239,south-southwest,6.0,Yes
